Flag for Canada Weather past 2 weeks in MD of Lunenburg, Nova Scotia, Canada

Now
39 °F

Chilly.


Feels Like: 36 °F
Forecast: 25 / 39 °F
Wind: 5 mph from Northwest

Location: McNabs Island - AUT

Current Time: Dec 29, 2014 at 1:33:37 AM

Latest Report: Dec 29, 2014 at 1:00 AM


Visibility: N/A

Pressure: 29.72 "Hg

Humidity: 87%

Dew point: 35 °F

Location of MD of LunenburgLocation

Historic Weather in MD of Lunenburg — Graph

°F

MD of Lunenburg temperature yesterday

Maximum temperature yesterday: 45 °F (at 7:00 PM)
Minimum temperature yesterday: 34 °F (at 1:00 AM)
Average temperature yesterday: 41 °F

Past Weeks' High & Low Weather Summary

 TemperatureHumidityPressure
High56 °F (Dec 25, 2:00 PM)100% (Dec 14, 2:00 AM)30.48 "Hg (Dec 14, 2:00 AM)
Low29 °F (Dec 22, 11:00 AM)49% (Dec 26, 3:00 PM)29.38 "Hg (Dec 18, 7:00 AM)
Average37 °F85%29.95 "Hg
* Reported Midnight between Dec 13 and Dec 14 — Midnight between Dec 28 and Dec 29, MD of Lunenburg, Weather by CustomWeather, © 2014

Note: Actual official high and low records may vary slightly from our data, if they occured in-between our weather recording intervals... More about our weather records

Advertising

MD of Lunenburg weather history for previous 24 hours

 ConditionsComfort  
Time TempWeatherWind HumidityBarometerVisibility
12:00 AM
Dec 29
38 °FChilly.6 mph91%29.70 "HgN/A
11:00 PM
Dec 28
41 °FQuite cool.6 mph88%29.69 "HgN/A
10:00 PM41 °FQuite cool.3 mph92%29.67 "HgN/A
9:00 PM42 °FQuite cool.3 mph92%29.65 "HgN/A
8:00 PM43 °FQuite cool.5 mph92%29.64 "HgN/A
7:00 PM45 °FQuite cool.6 mph95%29.63 "HgN/A
6:00 PM44 °FQuite cool.12 mph96%29.60 "HgN/A
5:00 PM44 °FQuite cool.18 mph95%29.59 "HgN/A
4:00 PM44 °FQuite cool.17 mph94%29.59 "HgN/A
3:00 PM44 °FQuite cool.18 mph94%29.58 "HgN/A
2:00 PM44 °FQuite cool.23 mph95%29.60 "HgN/A
1:00 PM42 °FQuite cool.24 mph100%29.63 "HgN/A
12:00 PM42 °FQuite cool.23 mph100%29.67 "HgN/A
11:00 AM43 °FQuite cool.15 mph95%29.74 "HgN/A
10:00 AM43 °FQuite cool.13 mph94%29.80 "HgN/A
9:00 AM42 °FQuite cool.10 mph94%29.84 "HgN/A
8:00 AM41 °FQuite cool.9 mph93%29.85 "HgN/A
7:00 AM39 °FChilly.5 mph94%29.86 "HgN/A
6:00 AM38 °FChilly.3 mph92%29.88 "HgN/A
5:00 AM36 °FChilly.9 mph90%29.89 "HgN/A
4:00 AM37 °FChilly.12 mph89%29.93 "HgN/A
3:00 AM35 °FChilly.13 mph91%29.97 "HgN/A
2:00 AM36 °FChilly.12 mph84%29.97 "HgN/A
1:00 AM34 °FChilly.2 mph89%29.99 "HgN/A
Weather by CustomWeather, © 2014

See weather overviewHow to use our weather pages